GFSSGP_prec_precacc24_030.txt.gz
Total_Precipitation_Accumulation
0.00 0.00 0.00 0.00 0.00 0.00 0.00 0.00 0.00 0.00 0.02 0.03 0.02 0.02 0.04 0.08 0.20 0.34 0.14 0.31 0.23 0.15 0.07 0.05 0.13 0.09 0.00 0.00 0.00 0.00 0.00 0.00 0.00 0.00 0.00 0.00 0.00 0.00 0.00 0.00 0.00 0.00 0.00 0.00 0.00 0.00 0.00 0.00 0.00
0.00 0.00 0.00 0.00 0.00 0.00 0.00 0.00 0.00 0.01 0.10 0.13 0.10 0.03 0.01 0.08 0.20 0.23 0.20 0.27 0.17 0.17 0.11 0.04 0.15 0.20 0.09 0.05 0.05 0.04 0.01 0.00 0.00 0.00 0.00 0.00 0.00 0.00 0.00 0.00 0.00 0.00 0.00 0.00 0.00 0.00 0.00 0.00 0.00
0.00 0.00 0.00 0.00 0.00 0.00 0.00 0.00 0.02 0.05 0.10 0.08 0.11 0.05 0.04 0.14 0.18 0.31 0.20 0.35 0.40 0.44 0.26 0.13 0.14 0.24 0.26 0.21 0.18 0.12 0.03 0.00 0.00 0.00 0.00 0.00 0.00 0.00 0.00 0.00 0.00 0.00 0.00 0.00 0.00 0.00 0.00 0.00 0.00
0.00 0.00 0.00 0.00 0.00 0.00 0.00 0.01 0.03 0.05 0.08 0.05 0.05 0.06 0.06 0.19 0.29 0.32 0.40 0.74 0.87 0.85 0.61 0.35 0.32 0.30 0.41 0.37 0.23 0.08 0.01 0.00 0.00 0.00 0.00 0.00 0.00 0.00 0.00 0.00 0.00 0.00 0.00 0.00 0.00 0.00 0.00 0.00 0.00
0.00 0.00 0.00 0.00 0.00 0.00 0.00 0.01 0.06 0.16 0.29 0.25 0.09 0.02 0.05 0.14 0.22 0.44 0.99 1.44 1.57 1.34 1.35 0.72 0.91 0.79 0.68 0.46 0.18 0.05 0.00 0.00 0.00 0.00 0.00 0.00 0.00 0.00 0.00 0.00 0.00 0.00 0.00 0.00 0.00 0.00 0.00 0.00 0.00
0.00 0.00 0.00 0.00 0.00 0.00 0.01 0.05 0.15 0.25 0.27 0.15 0.06 0.04 0.09 0.22 0.16 0.68 1.10 1.95 2.61 1.46 1.14 1.02 1.54 2.02 1.11 0.32 0.08 0.00 0.00 0.00 0.00 0.00 0.00 0.00 0.00 0.00 0.00 0.00 0.00 0.00 0.00 0.00 0.00 0.00 0.00 0.00 0.00
0.00 0.00 0.00 0.00 0.00 0.00 0.02 0.06 0.19 0.14 0.05 0.02 0.11 0.30 0.57 0.39 0.32 0.62 1.36 2.73 4.01 4.07 3.48 3.19 2.12 1.67 0.73 0.12 0.00 0.00 0.00 0.00 0.00 0.00 0.00 0.00 0.00 0.00 0.00 0.00 0.00 0.00 0.00 0.00 0.00 0.00 0.00 0.00 0.00
0.00 0.00 0.00 0.00 0.00 0.06 0.12 0.21 0.09 0.03 0.03 0.18 0.08 0.28 0.18 0.73 0.48 0.44 0.81 1.79 2.88 5.82 4.85 5.10 3.92 1.53 0.36 0.03 0.00 0.00 0.00 0.00 0.00 0.00 0.00 0.00 0.00 0.00 0.00 0.00 0.00 0.00 0.00 0.00 0.00 0.00 0.00 0.00 0.00
0.00 0.00 0.00 0.00 0.01 0.15 0.23 0.06 0.05 0.05 0.01 0.09 0.26 0.39 0.35 0.63 0.34 0.41 0.48 1.05 1.50 2.71 2.65 2.32 2.31 1.08 0.18 0.04 0.01 0.00 0.00 0.00 0.00 0.00 0.00 0.00 0.00 0.00 0.00 0.00 0.00 0.00 0.00 0.00 0.00 0.00 0.00 0.00 0.00
0.00 0.00 0.00 0.00 0.06 0.24 0.13 0.03 0.03 0.04 0.04 0.08 0.18 0.63 0.52 0.27 0.34 0.44 0.48 0.40 0.63 0.87 1.21 1.08 0.75 0.38 0.14 0.02 0.00 0.00 0.00 0.00 0.00 0.00 0.00 0.00 0.00 0.00 0.00 0.00 0.00 0.00 0.00 0.00 0.00 0.00 0.00 0.00 0.00
0.00 0.00 0.00 0.02 0.11 0.04 0.02 0.06 0.02 0.09 0.12 0.14 0.74 0.40 0.33 0.40 0.46 0.59 0.86 0.39 0.14 0.24 0.36 0.39 0.37 0.15 0.05 0.00 0.00 0.00 0.00 0.00 0.00 0.00 0.00 0.00 0.00 0.00 0.00 0.00 0.01 0.00 0.00 0.00 0.00 0.00 0.00 0.00 0.00
0.00 0.00 0.00 0.01 0.01 0.01 0.00 0.00 0.02 0.14 0.54 0.23 0.29 0.34 0.40 0.70 0.58 0.22 0.16 0.11 0.04 0.04 0.09 0.08 0.09 0.05 0.00 0.00 0.00 0.00 0.00 0.01 0.04 0.01 0.00 0.01 0.01 0.00 0.00 0.00 0.00 0.00 0.00 0.00 0.00 0.00 0.00 0.00 0.00
0.00 0.00 0.00 0.01 0.04 0.03 0.00 0.03 0.05 0.01 0.03 0.11 0.13 0.17 0.38 0.48 0.13 0.03 0.03 0.01 0.00 0.00 0.00 0.00 0.01 0.00 0.00 0.00 0.00 0.00 0.03 0.04 0.06 0.05 0.05 0.02 0.01 0.00 0.00 0.00 0.00 0.00 0.00 0.00 0.00 0.00 0.00 0.00 0.00
0.00 0.00 0.00 0.00 0.00 0.01 0.01 0.02 0.00 0.02 0.07 0.11 0.10 0.14 0.10 0.04 0.01 0.01 0.02 0.02 0.00 0.00 0.00 0.00 0.00 0.00 0.00 0.00 0.00 0.05 0.12 0.18 0.19 0.18 0.15 0.13 0.08 0.05 0.03 0.01 0.00 0.01 0.01 0.00 0.00 0.00 0.00 0.00 0.00
0.00 0.00 0.01 0.02 0.01 0.00 0.01 0.01 0.00 0.01 0.03 0.04 0.03 0.03 0.01 0.01 0.01 0.01 0.01 0.03 0.00 0.00 0.00 0.03 0.06 0.03 0.01 0.01 0.03 0.16 0.21 0.15 0.08 0.16 0.30 0.24 0.12 0.06 0.02 0.01 0.01 0.01 0.00 0.00 0.00 0.00 0.00 0.00 0.00
0.00 0.00 0.00 0.02 0.01 0.00 0.00 0.00 0.00 0.01 0.00 0.01 0.01 0.00 0.01 0.00 0.00 0.00 0.00 0.00 0.00 0.00 0.01 0.08 0.16 0.15 0.08 0.08 0.08 0.39 0.37 0.12 0.06 0.13 0.13 0.06 0.04 0.03 0.01 0.00 0.00 0.00 0.00 0.00 0.00 0.00 0.00 0.00 0.00
0.00 0.00 0.00 0.00 0.00 0.00 0.00 0.00 0.01 0.01 0.05 0.07 0.02 0.01 0.01 0.01 0.01 0.00 0.00 0.00 0.01 0.02 0.04 0.05 0.13 0.21 0.25 0.16 0.48 0.39 0.06 0.04 0.02 0.04 0.02 0.02 0.01 0.00 0.00 0.00 0.00 0.00 0.00 0.00 0.00 0.00 0.00 0.00 0.00
0.00 0.00 0.00 0.00 0.00 0.00 0.00 0.00 0.00 0.01 0.05 0.27 0.09 0.04 0.04 0.00 0.00 0.01 0.02 0.04 0.03 0.03 0.08 0.06 0.12 0.23 0.34 0.24 0.15 0.06 0.04 0.03 0.00 0.01 0.00 0.00 0.00 0.00 0.00 0.00 0.00 0.00 0.00 0.00 0.00 0.00 0.00 0.00 0.00
0.00 0.00 0.00 0.00 0.00 0.00 0.00 0.00 0.00 0.00 0.00 0.03 0.05 0.07 0.02 0.00 0.01 0.02 0.03 0.04 0.04 0.06 0.08 0.13 0.09 0.24 0.12 0.02 0.01 0.01 0.02 0.02 0.01 0.00 0.00 0.00 0.00 0.00 0.00 0.00 0.00 0.00 0.00 0.00 0.00 0.00 0.00 0.00 0.00
0.00 0.00 0.00 0.00 0.00 0.00 0.00 0.00 0.00 0.00 0.00 0.01 0.01 0.11 0.03 0.00 0.00 0.01 0.01 0.01 0.03 0.07 0.21 0.24 0.08 0.07 0.01 0.00 0.00 0.00 0.00 0.00 0.00 0.00 0.00 0.00 0.00 0.00 0.00 0.00 0.00 0.00 0.00 0.00 0.00 0.00 0.00 0.00 0.00
0.00 0.00 0.00 0.00 0.00 0.00 0.00 0.00 0.00 0.00 0.00 0.01 0.00 0.00 0.00 0.00 0.00 0.00 0.00 0.00 0.01 0.01 0.15 0.17 0.06 0.05 0.02 0.01 0.00 0.01 0.03 0.01 0.00 0.00 0.00 0.00 0.00 0.00 0.00 0.00 0.00 0.00 0.00 0.00 0.00 0.00 0.00 0.00 0.00
0.00 0.00 0.00 0.00 0.00 0.00 0.00 0.00 0.00 0.00 0.00 0.00 0.00 0.00 0.00 0.00 0.00 0.00 0.00 0.00 0.01 0.06 0.25 0.11 0.10 0.10 0.06 0.04 0.04 0.04 0.10 0.06 0.02 0.00 0.00 0.00 0.00 0.00 0.00 0.00 0.00 0.00 0.00 0.00 0.00 0.00 0.00 0.00 0.00
0.00 0.00 0.00 0.00 0.00 0.04 0.02 0.00 0.03 0.05 0.00 0.00 0.00 0.00 0.00 0.00 0.00 0.00 0.00 0.00 0.02 0.07 0.20 0.15 0.12 0.16 0.09 0.10 0.16 0.11 0.15 0.11 0.03 0.00 0.00 0.00 0.00 0.00 0.00 0.00 0.00 0.00 0.00 0.00 0.00 0.00 0.00 0.00 0.00
0.00 0.00 0.00 0.00 0.00 0.01 0.01 0.01 0.00 0.00 0.00 0.01 0.00 0.00 0.00 0.00 0.00 0.00 0.00 0.01 0.03 0.11 0.17 0.29 0.28 0.16 0.10 0.13 0.18 0.13 0.11 0.08 0.02 0.01 0.00 0.00 0.00 0.00 0.00 0.00 0.00 0.00 0.00 0.00 0.00 0.00 0.00 0.00 0.00
0.00 0.00 0.00 0.03 0.00 0.00 0.00 0.01 0.01 0.01 0.04 0.08 0.10 0.00 0.00 0.00 0.00 0.00 0.02 0.04 0.04 0.08 0.13 0.18 0.24 0.17 0.10 0.09 0.10 0.06 0.03 0.02 0.01 0.00 0.00 0.00 0.00 0.00 0.00 0.00 0.00 0.00 0.00 0.00 0.00 0.00 0.00 0.01 0.00
0.00 0.00 0.00 0.06 0.06 0.01 0.03 0.01 0.00 0.00 0.00 0.00 0.00 0.00 0.00 0.00 0.00 0.00 0.01 0.02 0.05 0.11 0.08 0.06 0.19 0.18 0.08 0.08 0.04 0.01 0.01 0.01 0.00 0.00 0.00 0.00 0.00 0.00 0.00 0.00 0.00 0.00 0.00 0.00 0.00 0.01 0.02 0.01 0.00
0.00 0.00 0.00 0.01 0.04 0.01 0.01 0.00 0.00 0.00 0.00 0.00 0.00 0.00 0.00 0.00 0.00 0.00 0.00 0.01 0.04 0.07 0.04 0.09 0.08 0.06 0.02 0.01 0.00 0.00 0.01 0.02 0.03 0.03 0.00 0.00 0.00 0.00 0.00 0.00 0.00 0.00 0.00 0.00 0.02 0.02 0.01 0.01 0.01
0.00 0.00 0.00 0.00 0.00 0.00 0.00 0.00 0.00 0.00 0.00 0.00 0.00 0.00 0.00 0.00 0.00 0.00 0.00 0.00 0.01 0.01 0.01 0.04 0.02 0.00 0.00 0.00 0.00 0.01 0.03 0.03 0.02 0.01 0.01 0.01 0.00 0.00 0.00 0.00 0.00 0.01 0.02 0.03 0.02 0.01 0.00 0.00 0.00
0.00 0.00 0.00 0.00 0.00 0.00 0.00 0.00 0.00 0.00 0.00 0.00 0.00 0.00 0.00 0.00 0.00 0.00 0.00 0.00 0.00 0.00 0.00 0.00 0.00 0.00 0.00 0.00 0.00 0.02 0.03 0.02 0.02 0.01 0.01 0.00 0.00 0.00 0.00 0.00 0.00 0.01 0.01 0.00 0.01 0.02 0.00 0.01 0.01
0.00 0.01 0.04 0.00 0.00 0.00 0.00 0.00 0.00 0.00 0.00 0.00 0.00 0.00 0.00 0.00 0.00 0.00 0.00 0.00 0.00 0.00 0.00 0.01 0.01 0.00 0.00 0.02 0.03 0.03 0.02 0.01 0.00 0.00 0.00 0.00 0.00 0.00 0.00 0.00 0.00 0.00 0.00 0.01 0.02 0.01 0.01 0.01 0.01

GFSSGP_prec_precacc24_036.txt.gz
Total_Precipitation_Accumulation
0.00 0.00 0.00 0.00 0.00 0.00 0.00 0.00 0.00 0.00 0.02 0.08 0.04 0.04 0.06 0.12 0.18 0.26 0.13 0.35 0.26 0.16 0.07 0.02 0.00 0.01 0.00 0.00 0.00 0.00 0.00 0.00 0.00 0.00 0.00 0.00 0.00 0.00 0.00 0.00 0.00 0.00 0.00 0.00 0.00 0.00 0.00 0.00 0.00
0.00 0.00 0.00 0.00 0.00 0.00 0.00 0.00 0.00 0.01 0.08 0.12 0.19 0.16 0.12 0.10 0.11 0.16 0.29 0.37 0.22 0.19 0.10 0.11 0.04 0.07 0.07 0.04 0.04 0.04 0.01 0.00 0.00 0.00 0.00 0.00 0.00 0.00 0.00 0.00 0.00 0.00 0.00 0.00 0.00 0.00 0.00 0.00 0.00
0.00 0.00 0.00 0.00 0.00 0.00 0.00 0.00 0.02 0.05 0.10 0.11 0.13 0.14 0.11 0.15 0.13 0.27 0.21 0.41 0.41 0.35 0.11 0.11 0.15 0.14 0.21 0.17 0.15 0.11 0.03 0.00 0.00 0.00 0.00 0.00 0.00 0.00 0.00 0.00 0.00 0.00 0.00 0.00 0.00 0.00 0.00 0.00 0.00
0.00 0.00 0.00 0.00 0.00 0.00 0.00 0.01 0.03 0.05 0.07 0.06 0.05 0.10 0.12 0.36 0.16 0.21 0.44 0.80 0.78 0.70 0.42 0.28 0.34 0.23 0.34 0.30 0.18 0.08 0.01 0.00 0.00 0.00 0.00 0.00 0.00 0.00 0.00 0.00 0.00 0.00 0.00 0.00 0.00 0.00 0.00 0.00 0.00
0.00 0.00 0.00 0.00 0.00 0.00 0.00 0.01 0.06 0.16 0.28 0.25 0.10 0.06 0.12 0.29 0.28 0.48 1.03 1.48 1.47 1.38 1.47 0.79 1.03 0.74 0.58 0.40 0.18 0.05 0.00 0.00 0.00 0.00 0.00 0.00 0.00 0.00 0.00 0.00 0.00 0.00 0.00 0.00 0.00 0.00 0.00 0.00 0.00
0.00 0.00 0.00 0.00 0.00 0.00 0.01 0.05 0.13 0.23 0.27 0.15 0.06 0.01 0.15 0.33 0.19 0.70 1.13 2.00 2.67 1.63 1.63 1.34 1.67 2.17 1.25 0.36 0.08 0.00 0.00 0.00 0.00 0.00 0.00 0.00 0.00 0.00 0.00 0.00 0.00 0.00 0.00 0.00 0.00 0.00 0.00 0.00 0.00
0.00 0.00 0.00 0.00 0.00 0.00 0.02 0.05 0.12 0.09 0.05 0.02 0.11 0.27 0.60 0.40 0.30 0.63 1.32 2.81 4.12 4.51 4.01 3.87 2.66 2.13 1.09 0.22 0.01 0.00 0.00 0.00 0.00 0.00 0.00 0.00 0.00 0.00 0.00 0.00 0.00 0.00 0.00 0.00 0.00 0.00 0.00 0.00 0.00
0.00 0.00 0.00 0.00 0.00 0.05 0.08 0.16 0.09 0.06 0.05 0.18 0.08 0.27 0.21 0.76 0.44 0.39 0.77 1.87 3.04 6.08 5.60 5.68 4.87 2.36 0.78 0.19 0.01 0.00 0.00 0.00 0.00 0.00 0.00 0.00 0.00 0.00 0.00 0.00 0.00 0.00 0.00 0.00 0.00 0.00 0.00 0.00 0.00
0.00 0.00 0.00 0.00 0.01 0.13 0.21 0.04 0.07 0.06 0.02 0.09 0.26 0.40 0.36 0.65 0.33 0.37 0.43 1.01 1.54 2.93 3.01 2.92 2.81 1.83 0.50 0.13 0.06 0.00 0.00 0.00 0.00 0.00 0.00 0.00 0.00 0.00 0.00 0.00 0.00 0.00 0.00 0.00 0.00 0.00 0.00 0.00 0.00
0.00 0.00 0.00 0.00 0.06 0.24 0.13 0.03 0.04 0.03 0.03 0.08 0.22 0.66 0.55 0.31 0.35 0.44 0.48 0.40 0.67 0.96 1.49 1.61 1.42 0.76 0.24 0.08 0.05 0.00 0.00 0.00 0.00 0.00 0.00 0.00 0.00 0.00 0.00 0.00 0.00 0.00 0.00 0.00 0.00 0.00 0.00 0.00 0.00
0.00 0.00 0.00 0.02 0.11 0.04 0.02 0.06 0.02 0.11 0.12 0.15 0.76 0.43 0.36 0.42 0.47 0.60 0.87 0.41 0.19 0.28 0.44 0.55 0.79 0.63 0.29 0.08 0.03 0.00 0.00 0.00 0.00 0.00 0.00 0.00 0.00 0.00 0.00 0.00 0.01 0.00 0.00 0.00 0.00 0.00 0.00 0.00 0.00
0.00 0.00 0.00 0.01 0.01 0.01 0.00 0.00 0.02 0.14 0.54 0.23 0.30 0.37 0.45 0.73 0.59 0.23 0.18 0.16 0.09 0.06 0.17 0.20 0.28 0.29 0.16 0.07 0.01 0.00 0.00 0.01 0.04 0.01 0.00 0.00 0.00 0.00 0.00 0.00 0.00 0.00 0.00 0.00 0.00 0.00 0.00 0.00 0.00
0.00 0.00 0.00 0.01 0.04 0.03 0.00 0.04 0.06 0.03 0.03 0.11 0.16 0.32 0.50 0.52 0.15 0.05 0.07 0.05 0.02 0.01 0.03 0.08 0.11 0.07 0.06 0.02 0.00 0.00 0.02 0.02 0.02 0.02 0.01 0.01 0.00 0.00 0.00 0.00 0.00 0.00 0.00 0.00 0.00 0.00 0.00 0.00 0.00
0.00 0.00 0.00 0.00 0.01 0.01 0.02 0.02 0.01 0.02 0.07 0.11 0.11 0.27 0.26 0.11 0.04 0.03 0.03 0.03 0.01 0.01 0.01 0.01 0.02 0.03 0.03 0.01 0.00 0.02 0.01 0.00 0.00 0.00 0.00 0.00 0.00 0.01 0.02 0.00 0.00 0.00 0.00 0.00 0.00 0.00 0.00 0.00 0.00
0.00 0.00 0.02 0.03 0.01 0.00 0.01 0.01 0.00 0.01 0.03 0.04 0.03 0.04 0.05 0.06 0.07 0.02 0.02 0.03 0.00 0.00 0.01 0.00 0.00 0.04 0.02 0.02 0.00 0.01 0.05 0.03 0.01 0.00 0.00 0.00 0.01 0.01 0.00 0.00 0.00 0.00 0.00 0.00 0.00 0.00 0.00 0.00 0.00
0.00 0.00 0.01 0.04 0.03 0.02 0.01 0.00 0.00 0.01 0.00 0.01 0.01 0.00 0.01 0.00 0.00 0.00 0.00 0.00 0.00 0.00 0.00 0.00 0.00 0.03 0.02 0.02 0.02 0.06 0.12 0.05 0.01 0.04 0.05 0.05 0.05 0.02 0.01 0.00 0.00 0.00 0.00 0.00 0.00 0.00 0.00 0.00 0.00
0.00 0.00 0.00 0.01 0.01 0.01 0.00 0.00 0.01 0.01 0.05 0.07 0.02 0.01 0.01 0.01 0.01 0.00 0.00 0.00 0.00 0.02 0.04 0.00 0.00 0.01 0.06 0.04 0.05 0.04 0.03 0.03 0.04 0.08 0.07 0.05 0.03 0.01 0.00 0.00 0.00 0.00 0.00 0.00 0.00 0.00 0.00 0.00 0.00
0.00 0.00 0.00 0.00 0.00 0.00 0.00 0.00 0.00 0.01 0.05 0.27 0.09 0.04 0.04 0.00 0.00 0.00 0.00 0.01 0.01 0.03 0.08 0.05 0.02 0.04 0.15 0.07 0.05 0.01 0.04 0.08 0.04 0.03 0.01 0.01 0.00 0.00 0.00 0.00 0.00 0.00 0.00 0.00 0.00 0.00 0.00 0.00 0.00
0.00 0.00 0.00 0.00 0.00 0.00 0.00 0.00 0.00 0.00 0.00 0.03 0.05 0.07 0.02 0.00 0.00 0.00 0.00 0.00 0.02 0.05 0.07 0.10 0.05 0.18 0.09 0.02 0.01 0.01 0.06 0.07 0.03 0.01 0.00 0.00 0.00 0.00 0.00 0.00 0.00 0.00 0.00 0.00 0.00 0.00 0.00 0.00 0.00
0.00 0.00 0.00 0.00 0.00 0.00 0.00 0.00 0.00 0.00 0.00 0.01 0.01 0.11 0.03 0.00 0.00 0.00 0.00 0.00 0.00 0.02 0.16 0.22 0.07 0.08 0.02 0.00 0.00 0.00 0.02 0.05 0.03 0.00 0.00 0.00 0.00 0.00 0.00 0.00 0.00 0.00 0.00 0.00 0.00 0.00 0.00 0.00 0.00
0.00 0.00 0.00 0.00 0.00 0.00 0.00 0.00 0.00 0.00 0.00 0.01 0.00 0.00 0.00 0.00 0.00 0.00 0.00 0.00 0.00 0.01 0.15 0.17 0.06 0.05 0.02 0.01 0.00 0.02 0.08 0.12 0.05 0.01 0.00 0.00 0.00 0.00 0.00 0.00 0.00 0.00 0.00 0.00 0.00 0.00 0.00 0.00 0.00
0.00 0.00 0.00 0.00 0.00 0.00 0.00 0.00 0.00 0.00 0.00 0.00 0.00 0.00 0.00 0.00 0.00 0.00 0.00 0.00 0.01 0.06 0.25 0.11 0.10 0.10 0.09 0.08 0.06 0.06 0.13 0.13 0.12 0.08 0.03 0.02 0.01 0.00 0.00 0.00 0.00 0.00 0.00 0.00 0.00 0.00 0.00 0.00 0.00
0.00 0.00 0.00 0.00 0.00 0.04 0.02 0.00 0.03 0.05 0.00 0.00 0.00 0.00 0.00 0.00 0.00 0.00 0.00 0.00 0.02 0.07 0.20 0.15 0.12 0.20 0.14 0.22 0.25 0.18 0.21 0.20 0.11 0.04 0.03 0.03 0.03 0.01 0.00 0.00 0.00 0.00 0.00 0.00 0.00 0.00 0.00 0.00 0.00
0.00 0.00 0.00 0.00 0.00 0.01 0.01 0.01 0.00 0.00 0.00 0.01 0.00 0.00 0.00 0.00 0.00 0.00 0.00 0.01 0.03 0.11 0.17 0.29 0.31 0.21 0.19 0.32 0.36 0.20 0.17 0.14 0.10 0.06 0.03 0.02 0.02 0.02 0.01 0.00 0.00 0.00 0.00 0.00 0.00 0.00 0.00 0.00 0.00
0.00 0.00 0.00 0.03 0.00 0.00 0.00 0.01 0.01 0.01 0.04 0.08 0.10 0.00 0.00 0.00 0.00 0.00 0.02 0.04 0.04 0.08 0.13 0.18 0.32 0.41 0.26 0.23 0.19 0.12 0.11 0.12 0.09 0.06 0.07 0.06 0.05 0.04 0.02 0.00 0.00 0.00 0.00 0.00 0.01 0.00 0.00 0.01 0.00
0.00 0.00 0.00 0.06 0.06 0.01 0.03 0.01 0.00 0.00 0.00 0.00 0.00 0.00 0.00 0.00 0.00 0.00 0.01 0.02 0.05 0.11 0.08 0.06 0.29 0.41 0.47 0.29 0.13 0.09 0.06 0.04 0.03 0.03 0.06 0.04 0.03 0.01 0.00 0.00 0.00 0.00 0.00 0.00 0.00 0.01 0.02 0.01 0.00
0.00 0.00 0.00 0.01 0.04 0.01 0.01 0.00 0.00 0.00 0.00 0.00 0.00 0.00 0.00 0.00 0.00 0.00 0.00 0.01 0.04 0.07 0.05 0.09 0.09 0.25 0.37 0.21 0.07 0.03 0.02 0.04 0.06 0.08 0.05 0.04 0.03 0.01 0.00 0.00 0.00 0.00 0.00 0.00 0.02 0.02 0.01 0.01 0.01
0.00 0.00 0.00 0.00 0.00 0.00 0.00 0.00 0.00 0.00 0.00 0.00 0.00 0.00 0.00 0.00 0.00 0.00 0.00 0.00 0.01 0.01 0.01 0.06 0.04 0.02 0.09 0.15 0.10 0.03 0.04 0.06 0.07 0.08 0.10 0.08 0.04 0.01 0.00 0.00 0.00 0.00 0.01 0.03 0.02 0.01 0.00 0.00 0.00
0.00 0.00 0.00 0.00 0.00 0.00 0.00 0.00 0.00 0.00 0.00 0.00 0.00 0.00 0.00 0.00 0.00 0.00 0.00 0.00 0.00 0.00 0.00 0.00 0.00 0.01 0.01 0.01 0.02 0.05 0.09 0.11 0.13 0.13 0.14 0.10 0.04 0.01 0.01 0.00 0.00 0.00 0.01 0.00 0.00 0.01 0.00 0.01 0.01
0.00 0.01 0.04 0.00 0.00 0.00 0.00 0.00 0.00 0.00 0.00 0.00 0.00 0.00 0.00 0.00 0.00 0.00 0.00 0.00 0.00 0.00 0.00 0.01 0.03 0.03 0.04 0.05 0.08 0.12 0.14 0.16 0.12 0.10 0.08 0.06 0.03 0.02 0.01 0.00 0.00 0.00 0.00 0.00 0.00 0.01 0.01 0.01 0.01

GFSSGP_prec_precacc24_042.txt.gz
Total_Precipitation_Accumulation
0.00 0.00 0.00 0.00 0.00 0.00 0.00 0.00 0.00 0.00 0.02 0.08 0.05 0.14 0.09 0.13 0.12 0.14 0.31 0.98 1.46 0.59 0.11 0.03 0.02 0.01 0.01 0.00 0.00 0.00 0.00 0.00 0.00 0.00 0.00 0.00 0.00 0.00 0.00 0.00 0.00 0.00 0.00 0.00 0.00 0.00 0.00 0.00 0.00
0.00 0.00 0.00 0.00 0.00 0.00 0.00 0.00 0.00 0.01 0.06 0.25 0.25 0.28 0.24 0.60 0.34 0.22 0.37 0.50 0.34 0.29 0.20 0.18 0.07 0.04 0.03 0.02 0.01 0.00 0.00 0.00 0.00 0.00 0.00 0.00 0.00 0.00 0.00 0.00 0.00 0.00 0.00 0.00 0.00 0.00 0.00 0.00 0.00
0.00 0.00 0.00 0.00 0.00 0.00 0.00 0.00 0.02 0.05 0.10 0.10 0.10 0.15 0.27 0.94 0.52 0.31 0.27 0.53 0.68 0.40 0.25 0.20 0.24 0.17 0.12 0.06 0.02 0.00 0.00 0.00 0.00 0.00 0.00 0.00 0.00 0.00 0.00 0.00 0.00 0.00 0.00 0.00 0.00 0.00 0.00 0.00 0.00
0.00 0.00 0.00 0.00 0.00 0.00 0.00 0.01 0.02 0.05 0.07 0.06 0.04 0.18 0.24 0.63 0.55 0.58 0.52 0.78 1.09 0.87 0.44 0.28 0.40 0.26 0.29 0.12 0.02 0.00 0.00 0.00 0.00 0.00 0.00 0.00 0.00 0.00 0.00 0.00 0.00 0.00 0.00 0.00 0.00 0.00 0.00 0.00 0.00
0.00 0.00 0.00 0.00 0.00 0.00 0.00 0.01 0.05 0.08 0.22 0.23 0.07 0.29 0.54 0.36 0.34 0.76 1.00 1.24 1.07 1.36 1.15 0.77 0.83 0.58 0.51 0.17 0.00 0.00 0.00 0.00 0.00 0.00 0.00 0.00 0.00 0.00 0.00 0.00 0.00 0.00 0.00 0.00 0.00 0.00 0.00 0.00 0.00
0.00 0.00 0.00 0.00 0.00 0.00 0.01 0.06 0.08 0.14 0.12 0.05 0.04 0.41 0.77 0.46 0.23 0.64 1.05 1.54 1.67 1.29 1.64 1.62 1.59 2.05 1.01 0.16 0.00 0.00 0.00 0.00 0.00 0.00 0.00 0.00 0.00 0.00 0.00 0.00 0.00 0.00 0.00 0.00 0.00 0.00 0.00 0.00 0.00
0.00 0.00 0.00 0.00 0.00 0.01 0.10 0.13 0.03 0.04 0.05 0.16 0.12 0.34 0.62 0.51 0.52 0.47 0.84 2.77 3.93 4.36 4.31 3.76 3.15 2.23 1.04 0.17 0.00 0.00 0.00 0.00 0.00 0.00 0.00 0.00 0.00 0.00 0.00 0.00 0.00 0.00 0.00 0.00 0.00 0.00 0.00 0.00 0.00
0.00 0.00 0.00 0.00 0.00 0.02 0.10 0.14 0.09 0.05 0.08 0.27 0.11 0.18 0.26 0.71 0.49 0.23 0.43 1.49 2.78 4.42 5.82 5.80 5.12 2.82 0.93 0.21 0.02 0.00 0.00 0.00 0.00 0.00 0.00 0.00 0.00 0.00 0.00 0.00 0.00 0.00 0.00 0.00 0.00 0.00 0.00 0.00 0.00
0.00 0.00 0.00 0.00 0.00 0.02 0.05 0.04 0.19 0.09 0.02 0.03 0.03 0.14 0.47 0.72 0.27 0.19 0.18 0.48 1.28 2.42 3.12 3.19 3.04 2.19 0.90 0.22 0.10 0.01 0.00 0.00 0.00 0.00 0.00 0.00 0.00 0.00 0.00 0.00 0.00 0.00 0.00 0.00 0.00 0.00 0.00 0.00 0.00
0.00 0.00 0.00 0.00 0.00 0.01 0.03 0.03 0.16 0.05 0.03 0.17 0.27 0.32 0.54 0.29 0.25 0.22 0.15 0.15 0.46 0.87 1.63 1.80 1.62 0.91 0.31 0.11 0.12 0.06 0.01 0.00 0.00 0.00 0.00 0.00 0.00 0.00 0.00 0.00 0.00 0.00 0.00 0.00 0.00 0.00 0.00 0.00 0.00
0.00 0.00 0.00 0.00 0.00 0.00 0.01 0.07 0.06 0.05 0.08 0.36 0.82 0.45 0.38 0.41 0.41 0.54 0.70 0.24 0.17 0.36 0.64 0.80 0.99 0.78 0.36 0.11 0.06 0.09 0.04 0.00 0.00 0.00 0.00 0.00 0.00 0.00 0.00 0.00 0.00 0.00 0.00 0.00 0.00 0.00 0.00 0.00 0.00
0.00 0.00 0.00 0.00 0.00 0.00 0.00 0.01 0.04 0.04 0.08 0.07 0.18 0.33 0.45 0.74 0.60 0.26 0.18 0.14 0.09 0.12 0.40 0.41 0.39 0.36 0.24 0.13 0.13 0.10 0.07 0.02 0.01 0.00 0.00 0.00 0.00 0.00 0.00 0.00 0.00 0.00 0.00 0.00 0.00 0.00 0.00 0.00 0.00
0.00 0.00 0.00 0.00 0.02 0.02 0.00 0.00 0.01 0.03 0.01 0.06 0.10 0.36 0.53 0.55 0.15 0.06 0.07 0.06 0.05 0.08 0.13 0.35 0.32 0.18 0.11 0.08 0.11 0.15 0.08 0.05 0.01 0.00 0.00 0.01 0.00 0.00 0.00 0.00 0.00 0.00 0.00 0.00 0.00 0.00 0.00 0.00 0.00
0.00 0.00 0.00 0.00 0.01 0.00 0.01 0.05 0.07 0.14 0.03 0.08 0.11 0.32 0.55 0.56 0.08 0.03 0.04 0.04 0.02 0.05 0.11 0.14 0.22 0.22 0.19 0.10 0.05 0.05 0.03 0.02 0.01 0.00 0.00 0.00 0.00 0.00 0.00 0.00 0.00 0.00 0.00 0.00 0.00 0.00 0.00 0.00 0.00
0.00 0.00 0.02 0.03 0.01 0.00 0.04 0.19 0.33 0.10 0.02 0.04 0.03 0.04 0.36 0.86 0.23 0.04 0.02 0.03 0.01 0.01 0.05 0.09 0.13 0.17 0.13 0.14 0.10 0.03 0.01 0.00 0.00 0.00 0.00 0.00 0.01 0.00 0.00 0.00 0.00 0.00 0.00 0.00 0.00 0.00 0.00 0.00 0.00
0.00 0.00 0.01 0.04 0.03 0.02 0.15 0.48 0.05 0.03 0.01 0.02 0.01 0.00 0.05 0.10 0.02 0.01 0.00 0.00 0.00 0.00 0.00 0.01 0.05 0.11 0.10 0.08 0.07 0.05 0.02 0.03 0.01 0.04 0.05 0.05 0.03 0.01 0.00 0.01 0.00 0.00 0.00 0.00 0.00 0.00 0.00 0.00 0.00
0.00 0.00 0.00 0.01 0.01 0.01 0.05 0.33 0.12 0.04 0.04 0.06 0.02 0.01 0.01 0.01 0.01 0.00 0.00 0.00 0.00 0.01 0.04 0.00 0.01 0.04 0.07 0.06 0.06 0.02 0.02 0.03 0.04 0.07 0.11 0.08 0.04 0.04 0.01 0.01 0.00 0.00 0.00 0.00 0.00 0.00 0.00 0.00 0.00
0.00 0.00 0.00 0.02 0.00 0.00 0.01 0.03 0.24 0.10 0.04 0.27 0.09 0.04 0.04 0.00 0.00 0.00 0.00 0.01 0.01 0.03 0.08 0.04 0.01 0.03 0.15 0.10 0.06 0.01 0.03 0.09 0.08 0.09 0.14 0.07 0.00 0.00 0.00 0.03 0.00 0.00 0.00 0.00 0.00 0.00 0.00 0.00 0.00
0.00 0.00 0.00 0.00 0.00 0.00 0.00 0.00 0.01 0.00 0.00 0.03 0.05 0.07 0.02 0.00 0.00 0.00 0.00 0.00 0.02 0.05 0.06 0.08 0.02 0.05 0.11 0.06 0.01 0.01 0.06 0.09 0.07 0.13 0.15 0.11 0.02 0.00 0.00 0.01 0.00 0.00 0.00 0.00 0.00 0.00 0.00 0.00 0.00
0.00 0.00 0.00 0.00 0.00 0.00 0.00 0.00 0.00 0.00 0.00 0.01 0.01 0.11 0.03 0.00 0.00 0.00 0.00 0.00 0.00 0.02 0.15 0.15 0.04 0.03 0.06 0.01 0.00 0.00 0.02 0.05 0.04 0.05 0.06 0.04 0.06 0.02 0.00 0.02 0.02 0.00 0.00 0.00 0.00 0.00 0.00 0.00 0.00
0.00 0.00 0.00 0.00 0.00 0.00 0.00 0.00 0.00 0.00 0.00 0.01 0.00 0.00 0.00 0.00 0.00 0.00 0.00 0.00 0.00 0.00 0.13 0.14 0.05 0.05 0.08 0.01 0.00 0.02 0.09 0.13 0.07 0.04 0.10 0.06 0.07 0.04 0.01 0.00 0.00 0.00 0.00 0.00 0.00 0.00 0.00 0.00 0.00
0.00 0.00 0.00 0.00 0.00 0.00 0.00 0.00 0.00 0.00 0.00 0.00 0.00 0.00 0.00 0.00 0.00 0.00 0.00 0.00 0.01 0.05 0.25 0.11 0.10 0.10 0.11 0.09 0.06 0.06 0.13 0.14 0.13 0.10 0.05 0.06 0.03 0.03 0.03 0.01 0.00 0.00 0.00 0.00 0.00 0.00 0.00 0.00 0.00
0.00 0.00 0.00 0.00 0.00 0.00 0.00 0.00 0.00 0.00 0.00 0.00 0.00 0.00 0.00 0.00 0.00 0.00 0.00 0.00 0.02 0.07 0.20 0.15 0.12 0.20 0.14 0.25 0.27 0.19 0.21 0.20 0.19 0.09 0.04 0.04 0.05 0.06 0.06 0.02 0.03 0.02 0.01 0.00 0.00 0.00 0.00 0.00 0.00
0.00 0.00 0.00 0.00 0.00 0.00 0.00 0.00 0.00 0.00 0.00 0.00 0.00 0.00 0.00 0.00 0.00 0.00 0.00 0.01 0.03 0.11 0.17 0.29 0.31 0.21 0.19 0.34 0.40 0.23 0.21 0.17 0.27 0.25 0.10 0.08 0.05 0.04 0.05 0.04 0.03 0.03 0.01 0.01 0.00 0.00 0.00 0.00 0.00
0.00 0.00 0.00 0.01 0.00 0.00 0.00 0.01 0.00 0.01 0.01 0.00 0.05 0.00 0.00 0.00 0.00 0.00 0.02 0.04 0.04 0.08 0.13 0.18 0.32 0.41 0.27 0.25 0.23 0.21 0.17 0.18 0.15 0.16 0.20 0.18 0.11 0.10 0.10 0.05 0.03 0.03 0.02 0.01 0.01 0.00 0.00 0.00 0.00
0.00 0.00 0.01 0.10 0.05 0.03 0.04 0.01 0.00 0.00 0.00 0.00 0.00 0.00 0.00 0.00 0.00 0.00 0.01 0.02 0.05 0.11 0.08 0.06 0.29 0.41 0.48 0.33 0.16 0.14 0.08 0.06 0.07 0.13 0.18 0.12 0.09 0.08 0.08 0.04 0.02 0.01 0.01 0.01 0.00 0.00 0.00 0.00 0.00
0.00 0.00 0.00 0.03 0.07 0.04 0.03 0.00 0.00 0.00 0.00 0.00 0.00 0.00 0.00 0.00 0.00 0.00 0.00 0.01 0.04 0.07 0.05 0.09 0.09 0.25 0.37 0.24 0.12 0.06 0.03 0.04 0.06 0.08 0.07 0.06 0.05 0.05 0.05 0.03 0.03 0.01 0.01 0.00 0.00 0.00 0.00 0.00 0.00
0.00 0.00 0.00 0.00 0.03 0.03 0.00 0.00 0.01 0.01 0.00 0.00 0.00 0.00 0.00 0.00 0.00 0.00 0.00 0.00 0.01 0.01 0.01 0.06 0.04 0.03 0.12 0.23 0.23 0.07 0.05 0.07 0.08 0.09 0.14 0.11 0.08 0.06 0.05 0.03 0.01 0.01 0.00 0.00 0.00 0.00 0.00 0.00 0.00
0.00 0.00 0.00 0.00 0.00 0.01 0.02 0.00 0.00 0.00 0.00 0.00 0.00 0.00 0.00 0.00 0.00 0.00 0.00 0.00 0.00 0.00 0.00 0.00 0.00 0.10 0.06 0.05 0.10 0.09 0.10 0.12 0.14 0.14 0.15 0.11 0.06 0.03 0.01 0.01 0.01 0.01 0.00 0.00 0.00 0.00 0.00 0.00 0.00
0.00 0.01 0.04 0.01 0.00 0.00 0.01 0.00 0.00 0.00 0.00 0.00 0.00 0.00 0.00 0.00 0.00 0.00 0.00 0.00 0.00 0.00 0.00 0.01 0.03 0.11 0.09 0.07 0.12 0.22 0.19 0.18 0.14 0.13 0.10 0.07 0.04 0.02 0.02 0.01 0.00 0.00 0.00 0.00 0.00 0.00 0.00 0.00 0.02

GFSSGP_prec_precacc24_048.txt.gz
Total_Precipitation_Accumulation
0.00 0.00 0.00 0.00 0.00 0.00 0.00 0.00 0.00 0.00 0.01 0.06 0.04 0.14 0.09 0.13 0.13 0.19 0.35 0.79 1.36 1.44 1.78 1.41 0.54 0.16 0.01 0.00 0.00 0.00 0.00 0.00 0.00 0.00 0.00 0.00 0.00 0.00 0.00 0.00 0.00 0.00 0.00 0.00 0.00 0.00 0.00 0.00 0.00
0.00 0.00 0.00 0.00 0.00 0.00 0.00 0.00 0.00 0.00 0.04 0.24 0.25 0.28 0.24 0.61 0.39 0.32 0.42 0.42 0.24 0.27 0.41 1.89 1.96 0.57 0.08 0.01 0.00 0.00 0.00 0.00 0.00 0.00 0.00 0.00 0.00 0.00 0.00 0.00 0.00 0.00 0.00 0.00 0.00 0.00 0.00 0.00 0.00
0.00 0.00 0.00 0.00 0.00 0.00 0.00 0.00 0.00 0.05 0.09 0.10 0.10 0.16 0.33 1.08 0.61 0.44 0.50 0.54 0.59 0.45 0.44 0.45 1.01 1.06 0.35 0.01 0.00 0.00 0.00 0.00 0.00 0.00 0.00 0.00 0.00 0.00 0.00 0.00 0.00 0.00 0.00 0.00 0.00 0.00 0.00 0.00 0.00
0.00 0.00 0.00 0.00 0.00 0.00 0.00 0.00 0.00 0.02 0.03 0.05 0.05 0.24 0.48 0.78 0.52 0.49 0.38 0.76 1.18 1.11 1.01 1.09 1.04 0.56 0.58 0.09 0.00 0.00 0.00 0.00 0.00 0.00 0.00 0.00 0.00 0.00 0.00 0.00 0.00 0.00 0.00 0.00 0.00 0.00 0.00 0.00 0.00
0.00 0.00 0.00 0.00 0.00 0.00 0.00 0.00 0.00 0.00 0.14 0.18 0.06 0.37 0.72 0.54 0.27 0.38 0.42 0.74 0.90 1.51 1.63 1.56 2.41 1.54 0.94 0.31 0.02 0.00 0.00 0.00 0.00 0.00 0.00 0.00 0.00 0.00 0.00 0.00 0.00 0.00 0.00 0.00 0.00 0.00 0.00 0.00 0.00
0.00 0.00 0.00 0.00 0.00 0.00 0.00 0.01 0.01 0.05 0.05 0.04 0.10 0.49 0.78 0.45 0.31 0.36 0.23 0.56 1.03 1.23 1.60 1.95 2.62 3.64 1.57 0.78 0.23 0.01 0.00 0.00 0.00 0.00 0.00 0.00 0.00 0.00 0.00 0.00 0.00 0.00 0.00 0.00 0.00 0.00 0.00 0.00 0.00
0.00 0.00 0.00 0.00 0.00 0.00 0.09 0.09 0.00 0.06 0.05 0.22 0.31 0.58 0.48 0.41 0.47 0.35 0.46 1.36 2.00 2.94 3.35 2.88 3.20 3.61 2.43 1.47 0.88 0.06 0.00 0.00 0.00 0.00 0.00 0.00 0.00 0.00 0.00 0.00 0.00 0.00 0.00 0.00 0.00 0.00 0.00 0.00 0.00
0.00 0.00 0.00 0.00 0.00 0.01 0.08 0.03 0.06 0.06 0.15 0.36 0.18 0.44 0.53 0.42 0.46 0.41 0.39 0.89 2.06 3.12 5.11 4.69 5.20 5.14 2.43 1.42 0.86 0.18 0.01 0.00 0.00 0.00 0.00 0.00 0.00 0.00 0.00 0.00 0.00 0.00 0.00 0.00 0.00 0.00 0.00 0.00 0.00
0.00 0.00 0.00 0.00 0.00 0.00 0.00 0.02 0.20 0.08 0.10 0.19 0.06 0.12 0.29 0.26 0.26 0.27 0.24 0.31 0.91 1.82 2.62 3.15 3.00 3.46 3.10 1.54 0.68 0.20 0.02 0.00 0.00 0.00 0.00 0.00 0.00 0.00 0.00 0.00 0.00 0.00 0.00 0.00 0.00 0.00 0.00 0.00 0.00
0.00 0.00 0.00 0.00 0.00 0.00 0.00 0.00 0.17 0.06 0.15 0.48 0.23 0.13 0.20 0.22 0.18 0.16 0.09 0.12 0.32 0.64 1.35 1.70 1.56 1.02 0.80 0.88 0.65 0.26 0.06 0.00 0.00 0.00 0.00 0.00 0.00 0.00 0.00 0.00 0.00 0.00 0.00 0.00 0.00 0.00 0.00 0.00 0.00
0.00 0.00 0.00 0.00 0.00 0.00 0.00 0.01 0.08 0.23 0.33 0.42 0.46 0.19 0.15 0.19 0.12 0.10 0.07 0.06 0.15 0.29 0.56 0.72 0.94 0.85 0.50 0.29 0.27 0.18 0.07 0.01 0.00 0.00 0.00 0.00 0.01 0.00 0.00 0.00 0.00 0.00 0.00 0.00 0.00 0.00 0.00 0.00 0.00
0.00 0.00 0.00 0.00 0.00 0.00 0.00 0.01 0.08 0.21 0.26 0.09 0.10 0.11 0.15 0.15 0.08 0.06 0.05 0.06 0.08 0.14 0.41 0.40 0.41 0.39 0.27 0.15 0.13 0.11 0.08 0.02 0.02 0.01 0.00 0.00 0.00 0.00 0.00 0.00 0.00 0.00 0.00 0.00 0.00 0.00 0.00 0.00 0.00
0.00 0.00 0.00 0.00 0.00 0.00 0.00 0.00 0.07 0.29 0.08 0.03 0.04 0.23 0.31 0.20 0.03 0.04 0.06 0.05 0.05 0.14 0.21 0.39 0.35 0.19 0.12 0.08 0.12 0.15 0.09 0.06 0.05 0.00 0.00 0.00 0.00 0.00 0.00 0.00 0.00 0.00 0.00 0.00 0.00 0.00 0.00 0.00 0.00
0.00 0.00 0.00 0.00 0.00 0.00 0.00 0.05 0.09 0.37 0.06 0.06 0.05 0.21 0.48 0.55 0.08 0.03 0.04 0.04 0.05 0.13 0.19 0.21 0.26 0.28 0.21 0.11 0.05 0.06 0.05 0.04 0.08 0.00 0.00 0.00 0.00 0.00 0.00 0.00 0.00 0.00 0.00 0.00 0.00 0.00 0.00 0.00 0.00
0.00 0.00 0.02 0.03 0.01 0.00 0.04 0.19 0.34 0.11 0.05 0.07 0.01 0.01 0.35 0.85 0.22 0.03 0.01 0.02 0.02 0.08 0.19 0.26 0.23 0.26 0.20 0.17 0.17 0.13 0.07 0.01 0.00 0.00 0.01 0.00 0.01 0.01 0.01 0.01 0.01 0.00 0.00 0.00 0.00 0.00 0.00 0.00 0.00
0.00 0.00 0.01 0.04 0.03 0.02 0.15 0.48 0.05 0.02 0.04 0.03 0.00 0.00 0.05 0.10 0.02 0.00 0.00 0.00 0.00 0.01 0.08 0.18 0.26 0.19 0.14 0.11 0.12 0.10 0.07 0.06 0.02 0.04 0.05 0.05 0.03 0.03 0.02 0.03 0.01 0.00 0.00 0.00 0.00 0.00 0.00 0.00 0.00
0.00 0.00 0.00 0.01 0.01 0.01 0.05 0.33 0.12 0.03 0.04 0.02 0.00 0.00 0.00 0.00 0.00 0.00 0.00 0.00 0.00 0.00 0.01 0.10 0.18 0.15 0.09 0.09 0.07 0.02 0.02 0.04 0.05 0.07 0.11 0.09 0.04 0.08 0.02 0.07 0.08 0.00 0.00 0.00 0.00 0.00 0.00 0.00 0.00
0.00 0.00 0.00 0.02 0.02 0.01 0.01 0.03 0.25 0.12 0.01 0.01 0.04 0.01 0.00 0.00 0.00 0.00 0.00 0.00 0.00 0.00 0.00 0.00 0.05 0.10 0.08 0.05 0.03 0.00 0.02 0.10 0.08 0.09 0.15 0.13 0.02 0.02 0.04 0.10 0.05 0.00 0.00 0.00 0.00 0.00 0.00 0.00 0.00
0.00 0.00 0.00 0.00 0.01 0.00 0.00 0.01 0.01 0.00 0.00 0.01 0.03 0.01 0.00 0.00 0.00 0.00 0.00 0.00 0.00 0.00 0.00 0.00 0.00 0.03 0.08 0.04 0.00 0.01 0.06 0.09 0.07 0.13 0.20 0.18 0.06 0.07 0.12 0.13 0.05 0.00 0.00 0.00 0.00 0.00 0.00 0.00 0.00
0.00 0.00 0.00 0.00 0.00 0.00 0.00 0.00 0.00 0.00 0.00 0.00 0.00 0.00 0.00 0.00 0.00 0.00 0.00 0.00 0.00 0.00 0.00 0.00 0.00 0.02 0.06 0.01 0.00 0.00 0.02 0.05 0.04 0.06 0.10 0.09 0.09 0.08 0.09 0.09 0.07 0.03 0.01 0.00 0.00 0.00 0.00 0.00 0.00
0.00 0.00 0.00 0.00 0.00 0.00 0.00 0.00 0.00 0.01 0.01 0.01 0.00 0.00 0.00 0.00 0.00 0.00 0.00 0.00 0.00 0.00 0.00 0.02 0.02 0.03 0.08 0.01 0.00 0.02 0.09 0.13 0.07 0.04 0.10 0.07 0.08 0.06 0.12 0.04 0.02 0.09 0.01 0.01 0.03 0.00 0.00 0.00 0.00
0.00 0.00 0.00 0.00 0.00 0.00 0.00 0.00 0.00 0.00 0.01 0.00 0.00 0.00 0.00 0.00 0.00 0.00 0.00 0.00 0.00 0.00 0.03 0.04 0.04 0.08 0.10 0.07 0.06 0.06 0.13 0.14 0.13 0.10 0.05 0.07 0.04 0.07 0.19 0.08 0.03 0.11 0.09 0.01 0.01 0.00 0.01 0.01 0.00
0.00 0.00 0.00 0.00 0.00 0.00 0.00 0.00 0.00 0.00 0.02 0.00 0.00 0.00 0.00 0.00 0.00 0.00 0.00 0.00 0.00 0.02 0.07 0.09 0.10 0.18 0.12 0.24 0.27 0.21 0.21 0.20 0.19 0.10 0.07 0.07 0.06 0.09 0.18 0.10 0.08 0.06 0.11 0.04 0.01 0.01 0.01 0.01 0.00
0.00 0.00 0.00 0.00 0.00 0.00 0.00 0.00 0.00 0.00 0.01 0.00 0.00 0.00 0.00 0.00 0.00 0.00 0.00 0.00 0.01 0.03 0.08 0.28 0.31 0.21 0.19 0.34 0.41 0.26 0.21 0.17 0.27 0.26 0.13 0.15 0.12 0.16 0.30 0.28 0.16 0.08 0.07 0.06 0.02 0.01 0.01 0.01 0.01
0.00 0.00 0.00 0.01 0.00 0.00 0.00 0.00 0.00 0.00 0.00 0.00 0.00 0.00 0.00 0.00 0.00 0.00 0.00 0.00 0.00 0.03 0.09 0.18 0.32 0.41 0.27 0.25 0.23 0.21 0.18 0.21 0.16 0.16 0.20 0.23 0.19 0.22 0.24 0.24 0.13 0.08 0.07 0.04 0.03 0.02 0.02 0.02 0.04
0.00 0.00 0.01 0.09 0.03 0.02 0.03 0.00 0.00 0.00 0.00 0.00 0.00 0.00 0.00 0.00 0.00 0.00 0.00 0.00 0.01 0.06 0.06 0.06 0.29 0.41 0.48 0.33 0.16 0.14 0.08 0.06 0.07 0.14 0.19 0.13 0.12 0.10 0.14 0.10 0.09 0.07 0.08 0.06 0.02 0.02 0.02 0.00 0.01
0.00 0.00 0.00 0.02 0.05 0.04 0.05 0.01 0.00 0.00 0.00 0.00 0.00 0.00 0.00 0.00 0.00 0.00 0.00 0.00 0.02 0.05 0.04 0.08 0.10 0.27 0.37 0.24 0.12 0.06 0.03 0.04 0.07 0.09 0.08 0.07 0.06 0.09 0.08 0.05 0.05 0.04 0.04 0.02 0.01 0.00 0.00 0.00 0.00
0.00 0.00 0.00 0.00 0.03 0.05 0.00 0.01 0.01 0.00 0.00 0.00 0.00 0.00 0.00 0.00 0.00 0.00 0.01 0.06 0.02 0.03 0.02 0.11 0.10 0.10 0.22 0.27 0.23 0.07 0.07 0.09 0.11 0.11 0.17 0.15 0.10 0.08 0.07 0.04 0.01 0.01 0.00 0.00 0.00 0.00 0.00 0.00 0.00
0.00 0.00 0.00 0.00 0.00 0.01 0.02 0.00 0.00 0.00 0.00 0.00 0.00 0.00 0.00 0.00 0.00 0.00 0.01 0.04 0.05 0.10 0.07 0.05 0.12 0.35 0.31 0.27 0.14 0.10 0.13 0.26 0.35 0.22 0.25 0.24 0.15 0.10 0.08 0.03 0.01 0.01 0.01 0.02 0.00 0.00 0.00 0.00 0.01
0.00 0.00 0.00 0.00 0.00 0.00 0.02 0.00 0.00 0.00 0.00 0.00 0.00 0.00 0.00 0.00 0.00 0.00 0.00 0.00 0.02 0.02 0.01 0.01 0.05 0.16 0.24 0.24 0.16 0.33 0.58 0.54 0.67 0.60 0.54 0.37 0.16 0.11 0.09 0.04 0.02 0.01 0.01 0.01 0.00 0.01 0.01 0.03 0.06